TimeCST,TemperatureF,Dew PointF,Humidity,Sea Level PressureIn,VisibilityMPH,Wind Direction,Wind SpeedMPH,Gust SpeedMPH,PrecipitationIn,Events,Conditions,WindDirDegrees,DateUTC
12:54 AM,41.0,30.9,67,30.06,10.0,WSW,6.9,-,N/A,,Clear,240,2013-03-03 06:54:00
1:54 AM,41.0,30.0,65,30.03,10.0,SW,4.6,-,N/A,,Clear,220,2013-03-03 07:54:00
2:54 AM,37.0,30.0,76,29.99,10.0,West,6.9,-,N/A,,Clear,260,2013-03-03 08:54:00
3:54 AM,33.1,28.0,82,29.96,10.0,WSW,6.9,-,N/A,,Clear,240,2013-03-03 09:54:00
4:54 AM,34.0,28.0,79,29.94,10.0,West,5.8,-,N/A,,Clear,280,2013-03-03 10:54:00
5:54 AM,34.0,27.0,75,29.92,10.0,West,5.8,-,N/A,,Clear,270,2013-03-03 11:54:00
6:54 AM,33.1,27.0,78,29.89,10.0,South,4.6,-,N/A,,Clear,180,2013-03-03 12:54:00
7:54 AM,32.0,27.0,82,29.88,10.0,SSW,8.1,-,N/A,,Clear,200,2013-03-03 13:54:00
8:54 AM,37.0,30.0,76,29.87,10.0,South,4.6,-,N/A,,Clear,190,2013-03-03 14:54:00
9:54 AM,41.0,32.0,70,29.84,10.0,SW,5.8,-,N/A,,Clear,220,2013-03-03 15:54:00
10:54 AM,48.9,32.0,52,29.79,10.0,SW,6.9,-,N/A,,Clear,220,2013-03-03 16:54:00
11:54 AM,55.9,30.9,39,29.75,10.0,SW,11.5,-,N/A,,Clear,220,2013-03-03 17:54:00
12:54 PM,60.1,30.0,32,29.70,10.0,WSW,11.5,-,N/A,,Clear,250,2013-03-03 18:54:00
1:54 PM,66.0,28.9,25,29.64,10.0,WSW,9.2,-,N/A,,Clear,240,2013-03-03 19:54:00
2:54 PM,68.0,28.9,23,29.60,10.0,WSW,9.2,-,N/A,,Clear,240,2013-03-03 20:54:00
3:54 PM,68.0,30.0,24,29.59,10.0,SSW,3.5,-,N/A,,Clear,210,2013-03-03 21:54:00
4:54 PM,69.8,26.6,20,29.60,10.0,SW,6.9,-,N/A,,Clear,230,2013-03-03 22:54:00
5:54 PM,60.1,39.0,46,29.59,10.0,South,8.1,-,N/A,,Clear,170,2013-03-03 23:54:00
6:54 PM,57.9,39.0,49,29.60,10.0,Calm,Calm,-,N/A,,Clear,0,2013-03-04 00:54:00
7:54 PM,51.1,39.0,63,29.62,10.0,South,3.5,-,N/A,,Clear,170,2013-03-04 01:54:00
8:54 PM,48.0,39.9,74,29.61,10.0,East,6.9,-,N/A,,Clear,80,2013-03-04 02:54:00
9:54 PM,46.9,39.0,74,29.60,10.0,SE,10.4,-,N/A,,Clear,130,2013-03-04 03:54:00
10:54 PM,44.1,37.9,79,29.58,10.0,NE,5.8,-,N/A,,Clear,40,2013-03-04 04:54:00
11:54 PM,44.1,39.0,82,29.57,10.0,North,3.5,-,N/A,,Clear,10,2013-03-04 05:54:00